[TLELIST] Archives

 

[TLELIST] Current TLEs

May 1st 2025 PDT

HST 1 20580U 90037B 25118.90038554 .00010015 00000-0 38476-3 0 9993 2 20580 28.4697 18.8626 0001952 270.3861 89.6509 15.24721539725154 ISS (ZARYA) 1 25544U 98067A 25119.19035294 .00013779 00000-0 25440-3 0 9996 2 25544 51.6352 189.7367 0002491 81.0639 279.0631 15.49383308507563 CXO 1 25867U 99040B 25121.83190868 .00000680 00000-0 00000-0 0 9998 2 25867 48.5387 131.8668 8498411 308.7907 359.5719 0.37807472 15763 ...Continue Reading

[TLELIST] Current TLEs

April 30th 2025 PDT

HST 1 20580U 90037B 25118.90038554 .00010015 00000-0 38476-3 0 9993 2 20580 28.4697 18.8626 0001952 270.3861 89.6509 15.24721539725154 ISS (ZARYA) 1 25544U 98067A 25119.19035294 .00013779 00000-0 25440-3 0 9996 2 25544 51.6352 189.7367 0002491 81.0639 279.0631 15.49383308507563 CXO 1 25867U 99040B 25121.83190868 .00000680 00000-0 00000-0 0 9998 2 25867 48.5387 131.8668 8498411 308.7907 359.5719 0.37807472 15763 ...Continue Reading

[TLELIST] Current TLEs

April 29th 2025 PDT

HST 1 20580U 90037B 25118.90038554 .00010015 00000-0 38476-3 0 9993 2 20580 28.4697 18.8626 0001952 270.3861 89.6509 15.24721539725154 ISS (ZARYA) 1 25544U 98067A 25119.19035294 .00013779 00000-0 25440-3 0 9996 2 25544 51.6352 189.7367 0002491 81.0639 279.0631 15.49383308507563 CXO 1 25867U 99040B 25121.83190868 .00000680 00000-0 00000-0 0 9998 2 25867 48.5387 131.8668 8498411 308.7907 359.5719 0.37807472 15763 ...Continue Reading

[TLELIST] Current TLEs

April 29th 2025 PDT

HST 1 20580U 90037B 25118.90038554 .00010015 00000-0 38476-3 0 9993 2 20580 28.4697 18.8626 0001952 270.3861 89.6509 15.24721539725154 ISS (ZARYA) 1 25544U 98067A 25119.19035294 .00013779 00000-0 25440-3 0 9996 2 25544 51.6352 189.7367 0002491 81.0639 279.0631 15.49383308507563 CXO 1 25867U 99040B 25121.83190868 .00000680 00000-0 00000-0 0 9998 2 25867 48.5387 131.8668 8498411 308.7907 359.5719 0.37807472 15763 ...Continue Reading

[TLELIST] Current TLEs

April 28th 2025 PDT

HST 1 20580U 90037B 25117.85311060 .00011294 00000-0 43512-3 0 9999 2 20580 28.4693 25.9548 0001938 258.0468 101.9909 15.24700783724993 ISS (ZARYA) 1 25544U 98067A 25118.15835618 .00017661 00000-0 32398-3 0 9993 2 25544 51.6355 194.8450 0002487 79.1319 280.9949 15.49353104507401 CXO 1 25867U 99040B 25119.18771899 .00000707 00000-0 00000-0 0 9992 2 25867 48.4638 132.0358 8503143 308.6933 359.7111 0.37811173 15768 ...Continue Reading

[TLELIST] Current TLEs

April 27th 2025 PDT

HST 1 20580U 90037B 25116.87127622 .00011130 00000-0 42900-3 0 9998 2 20580 28.4690 32.6031 0001988 246.3746 113.6639 15.24679374724841 ISS (ZARYA) 1 25544U 98067A 25117.34038692 .00017554 00000-0 32239-3 0 9995 2 25544 51.6377 198.8886 0002511 80.4095 34.3873 15.49325008507270 CXO 1 25867U 99040B 25116.54559048 .00000821 00000-0 00000-0 0 9996 2 25867 48.3596 132.2511 8505568 308.5720 0.1181 0.37809910 15758 ...Continue Reading

[TLELIST] Current TLEs

April 26th 2025 PDT

HST 1 20580U 90037B 25116.08579939 .00010688 00000-0 41187-3 0 9996 2 20580 28.4689 37.9217 0001989 236.7746 123.2658 15.24661028724987 ISS (ZARYA) 1 25544U 98067A 25116.17377446 .00026680 00000-0 48575-3 0 9998 2 25544 51.6374 204.6652 0002397 79.3170 4.4179 15.49294231507097 CXO 1 25867U 99040B 25116.54559048 .00000821 00000-0 00000-0 0 9996 2 25867 48.3596 132.2511 8505568 308.5720 0.1181 0.37809910 15758 ...Continue Reading

[TLELIST] Current TLEs

April 26th 2025 PDT

HST 1 20580U 90037B 25116.08579939 .00010688 00000-0 41187-3 0 9996 2 20580 28.4689 37.9217 0001989 236.7746 123.2658 15.24661028724987 ISS (ZARYA) 1 25544U 98067A 25116.17377446 .00026680 00000-0 48575-3 0 9998 2 25544 51.6374 204.6652 0002397 79.3170 4.4179 15.49294231507097 CXO 1 25867U 99040B 25116.54559048 .00000821 00000-0 00000-0 0 9996 2 25867 48.3596 132.2511 8505568 308.5720 0.1181 0.37809910 15758 ...Continue Reading

[TLELIST] Current TLEs

April 25th 2025 PDT

HST 1 20580U 90037B 25114.97302514 .00011359 00000-0 43850-3 0 9990 2 20580 28.4686 45.4568 0002003 223.3430 136.7007 15.24637457724815 ISS (ZARYA) 1 25544U 98067A 25115.19123301 .00019954 00000-0 36627-3 0 9999 2 25544 51.6367 209.5298 0002336 82.7408 277.3846 15.49244896506941 CXO 1 25867U 99040B 25116.54559048 .00000821 00000-0 00000-0 0 9996 2 25867 48.3596 132.2511 8505568 308.5720 0.1181 0.37809910 15758 ...Continue Reading

[TLELIST] Current TLEs

April 25th 2025 PDT

HST 1 20580U 90037B 25114.97302514 .00011359 00000-0 43850-3 0 9990 2 20580 28.4686 45.4568 0002003 223.3430 136.7007 15.24637457724815 ISS (ZARYA) 1 25544U 98067A 25115.19123301 .00019954 00000-0 36627-3 0 9999 2 25544 51.6367 209.5298 0002336 82.7408 277.3846 15.49244896506941 CXO 1 25867U 99040B 25116.54559048 .00000821 00000-0 00000-0 0 9996 2 25867 48.3596 132.2511 8505568 308.5720 0.1181 0.37809910 15758 ...Continue Reading
  • This mailing list is a public mailing list - anyone may join or leave, at any time.
  • This mailing list is announce-only.

International Space Station (ISS) / Hubble Space Telescope (HST) / Chandra X-Ray Observatory Orbital Data via EMAIL

Privacy Policy:

Private list